Time,TemperatureF,DewpointF,PressureIn,WindDirection,WindDirectionDegrees,WindSpeedMPH,WindSpeedGustMPH,Humidity,HourlyPrecipIn,Conditions,Clouds,dailyrainin,SoftwareType,DateUTC
2013-01-15 00:03:00,14.0,-99.9,-100.00,WSW,254,1.0,-999.0,-999,0.00,,,0.00,,2013-01-15 06:03:00,
2013-01-15 00:12:00,14.0,-99.9,-100.00,WSW,254,1.0,-999.0,-999,0.00,,,0.00,,2013-01-15 06:12:00,
2013-01-15 00:22:00,14.0,-99.9,-100.00,WSW,254,1.0,-999.0,-999,0.00,,,0.00,,2013-01-15 06:22:00,
2013-01-15 00:33:00,13.0,-99.9,-100.00,SSW,210,0.0,-999.0,-999,0.00,,,0.00,,2013-01-15 06:33:00,
2013-01-15 00:43:00,13.0,-99.9,-100.00,SSW,210,0.0,-999.0,-999,0.00,,,0.00,,2013-01-15 06:43:00,
2013-01-15 00:53:00,13.0,-99.9,-100.00,SSW,210,0.0,-999.0,-999,0.00,,,0.00,,2013-01-15 06:53:00,
2013-01-15 01:02:00,13.0,-99.9,-100.00,West,280,1.0,-999.0,-999,0.00,,,0.00,,2013-01-15 07:02:00,
2013-01-15 01:12:00,13.0,-99.9,-100.00,West,280,1.0,-999.0,-999,0.00,,,0.00,,2013-01-15 07:12:00,
2013-01-15 01:22:00,13.0,-99.9,-100.00,West,280,1.0,-999.0,-999,0.00,,,0.00,,2013-01-15 07:22:00,
2013-01-15 01:33:00,12.0,-99.9,-100.00,West,273,1.0,-999.0,-999,0.00,,,0.00,,2013-01-15 07:33:00,
2013-01-15 01:43:00,12.0,-99.9,-100.00,West,273,1.0,-999.0,-999,0.00,,,0.00,,2013-01-15 07:43:00,
2013-01-15 01:53:00,12.0,-99.9,-100.00,West,273,1.0,-999.0,-999,0.00,,,0.00,,2013-01-15 07:53:00,
2013-01-15 02:02:00,11.0,-99.9,-100.00,West,272,2.0,-999.0,-999,0.00,,,0.00,,2013-01-15 08:02:00,
2013-01-15 02:12:00,11.0,-99.9,-100.00,West,272,2.0,-999.0,-999,0.00,,,0.00,,2013-01-15 08:12:00,
2013-01-15 02:22:00,11.0,-99.9,-100.00,West,272,2.0,-999.0,-999,0.00,,,0.00,,2013-01-15 08:22:00,
2013-01-15 02:33:00,12.0,-99.9,-100.00,West,270,1.0,-999.0,-999,0.00,,,0.00,,2013-01-15 08:33:00,
2013-01-15 02:43:00,12.0,-99.9,-100.00,West,270,1.0,-999.0,-999,0.00,,,0.00,,2013-01-15 08:43:00,
2013-01-15 02:53:00,12.0,-99.9,-100.00,West,270,1.0,-999.0,-999,0.00,,,0.00,,2013-01-15 08:53:00,
2013-01-15 03:02:00,9.0,-99.9,-100.00,West,275,2.0,-999.0,-999,0.00,,,0.00,,2013-01-15 09:02:00,
2013-01-15 03:12:00,9.0,-99.9,-100.00,West,275,2.0,-999.0,-999,0.00,,,0.00,,2013-01-15 09:12:00,
2013-01-15 03:22:00,9.0,-99.9,-100.00,West,275,2.0,-999.0,-999,0.00,,,0.00,,2013-01-15 09:22:00,
2013-01-15 03:33:00,11.0,-99.9,-100.00,West,277,0.0,-999.0,-999,0.00,,,0.00,,2013-01-15 09:33:00,
2013-01-15 03:43:00,11.0,-99.9,-100.00,West,277,0.0,-999.0,-999,0.00,,,0.00,,2013-01-15 09:43:00,
2013-01-15 03:53:00,11.0,-99.9,-100.00,West,277,0.0,-999.0,-999,0.00,,,0.00,,2013-01-15 09:53:00,
2013-01-15 04:02:00,12.0,-99.9,-100.00,South,170,2.0,-999.0,-999,0.00,,,0.00,,2013-01-15 10:02:00,
2013-01-15 04:12:00,12.0,-99.9,-100.00,South,170,2.0,-999.0,-999,0.00,,,0.00,,2013-01-15 10:12:00,
2013-01-15 04:22:00,12.0,-99.9,-100.00,South,170,2.0,-999.0,-999,0.00,,,0.00,,2013-01-15 10:22:00,
2013-01-15 04:33:00,9.0,-99.9,-100.00,WNW,294,2.0,-999.0,-999,0.00,,,0.00,,2013-01-15 10:33:00,
2013-01-15 04:42:00,9.0,-99.9,-100.00,WNW,294,2.0,-999.0,-999,0.00,,,0.00,,2013-01-15 10:42:00,
2013-01-15 04:52:00,9.0,-99.9,-100.00,WNW,294,2.0,-999.0,-999,0.00,,,0.00,,2013-01-15 10:52:00,
2013-01-15 05:03:00,10.0,-99.9,-100.00,WSW,245,1.0,-999.0,-999,0.00,,,0.00,,2013-01-15 11:03:00,
2013-01-15 05:12:00,10.0,-99.9,-100.00,WSW,245,1.0,-999.0,-999,0.00,,,0.00,,2013-01-15 11:12:00,
2013-01-15 05:23:00,10.0,-99.9,-100.00,WSW,245,1.0,-999.0,-999,0.00,,,0.00,,2013-01-15 11:23:00,
2013-01-15 05:33:00,10.0,-99.9,-100.00,WNW,289,1.0,-999.0,-999,0.00,,,0.00,,2013-01-15 11:33:00,
2013-01-15 05:43:00,10.0,-99.9,-100.00,WNW,289,1.0,-999.0,-999,0.00,,,0.00,,2013-01-15 11:43:00,
2013-01-15 05:53:00,10.0,-99.9,-100.00,WNW,289,1.0,-999.0,-999,0.00,,,0.00,,2013-01-15 11:53:00,
2013-01-15 06:03:00,9.0,-99.9,-100.00,West,281,1.0,-999.0,-999,0.00,,,0.00,,2013-01-15 12:03:00,
2013-01-15 06:12:00,9.0,-99.9,-100.00,West,281,1.0,-999.0,-999,0.00,,,0.00,,2013-01-15 12:12:00,
2013-01-15 06:23:00,9.0,-99.9,-100.00,West,281,1.0,-999.0,-999,0.00,,,0.00,,2013-01-15 12:23:00,
2013-01-15 06:33:00,11.0,-99.9,-100.00,WSW,255,1.0,-999.0,-999,0.00,,,0.00,,2013-01-15 12:33:00,
2013-01-15 06:43:00,11.0,-99.9,-100.00,WSW,255,1.0,-999.0,-999,0.00,,,0.00,,2013-01-15 12:43:00,
2013-01-15 06:53:00,11.0,-99.9,-100.00,WSW,255,1.0,-999.0,-999,0.00,,,0.00,,2013-01-15 12:53:00,
2013-01-15 07:03:00,10.0,-99.9,-100.00,West,279,1.0,-999.0,-999,0.00,,,0.00,,2013-01-15 13:03:00,
2013-01-15 07:13:00,10.0,-99.9,-100.00,West,279,1.0,-999.0,-999,0.00,,,0.00,,2013-01-15 13:13:00,
2013-01-15 07:23:00,10.0,-99.9,-100.00,West,279,1.0,-999.0,-999,0.00,,,0.00,,2013-01-15 13:23:00,
2013-01-15 07:33:00,10.0,-99.9,-100.00,South,190,0.0,-999.0,-999,0.00,,,0.00,,2013-01-15 13:33:00,
2013-01-15 07:43:00,10.0,-99.9,-100.00,South,190,0.0,-999.0,-999,0.00,,,0.00,,2013-01-15 13:43:00,
2013-01-15 07:53:00,10.0,-99.9,-100.00,South,190,0.0,-999.0,-999,0.00,,,0.00,,2013-01-15 13:53:00,
2013-01-15 08:03:00,9.0,-99.9,-100.00,SW,227,2.0,-999.0,-999,0.00,,,0.00,,2013-01-15 14:03:00,
2013-01-15 08:13:00,9.0,-99.9,-100.00,SW,227,2.0,-999.0,-999,0.00,,,0.00,,2013-01-15 14:13:00,
2013-01-15 08:23:00,9.0,-99.9,-100.00,SW,227,2.0,-999.0,-999,0.00,,,0.00,,2013-01-15 14:23:00,
2013-01-15 08:30:00,15.0,-99.9,-100.00,WSW,245,2.0,-999.0,-999,0.00,,,0.00,,2013-01-15 14:30:00,
2013-01-15 08:33:00,12.0,-99.9,-100.00,SW,223,3.0,-999.0,-999,0.00,,,0.00,,2013-01-15 14:33:00,
2013-01-15 08:43:00,12.0,-99.9,-100.00,SW,223,3.0,-999.0,-999,0.00,,,0.00,,2013-01-15 14:43:00,
2013-01-15 08:54:00,12.0,-99.9,-100.00,SW,223,3.0,-999.0,-999,0.00,,,0.00,,2013-01-15 14:54:00,
2013-01-15 09:00:00,20.0,-99.9,-100.00,South,190,1.0,-999.0,-999,0.00,,,0.00,,2013-01-15 15:00:00,
2013-01-15 09:03:00,15.0,-99.9,-100.00,WSW,245,2.0,-999.0,-999,0.00,,,0.00,,2013-01-15 15:03:00,
2013-01-15 09:13:00,15.0,-99.9,-100.00,WSW,245,2.0,-999.0,-999,0.00,,,0.00,,2013-01-15 15:13:00,
2013-01-15 09:23:00,15.0,-99.9,-100.00,WSW,245,2.0,-999.0,-999,0.00,,,0.00,,2013-01-15 15:23:00,
2013-01-15 09:44:00,20.0,-99.9,-100.00,South,190,1.0,-999.0,-999,0.00,,,0.00,,2013-01-15 15:44:00,
2013-01-15 09:53:00,20.0,-99.9,-100.00,South,190,1.0,-999.0,-999,0.00,,,0.00,,2013-01-15 15:53:00,
2013-01-15 10:34:00,26.0,-99.9,-100.00,NNE,23,2.0,-999.0,-999,0.00,,,0.00,,2013-01-15 16:34:00,
2013-01-15 10:43:00,26.0,-99.9,-100.00,NNE,23,2.0,-999.0,-999,0.00,,,0.00,,2013-01-15 16:43:00,
2013-01-15 10:54:00,26.0,-99.9,-100.00,NNE,23,2.0,-999.0,-999,0.00,,,0.00,,2013-01-15 16:54:00,
2013-01-15 11:04:00,24.0,-99.9,-100.00,NNW,344,3.0,-999.0,-999,0.00,,,0.00,,2013-01-15 17:04:00,
2013-01-15 11:13:00,24.0,-99.9,-100.00,NNW,344,3.0,-999.0,-999,0.00,,,0.00,,2013-01-15 17:13:00,
2013-01-15 11:23:00,24.0,-99.9,-100.00,NNW,344,3.0,-999.0,-999,0.00,,,0.00,,2013-01-15 17:23:00,
2013-01-15 11:33:00,25.0,-99.9,-100.00,NNE,18,2.0,-999.0,-999,0.00,,,0.00,,2013-01-15 17:33:00,
2013-01-15 11:43:00,25.0,-99.9,-100.00,NNE,18,2.0,-999.0,-999,0.00,,,0.00,,2013-01-15 17:43:00,
2013-01-15 11:53:00,25.0,-99.9,-100.00,NNE,18,2.0,-999.0,-999,0.00,,,0.00,,2013-01-15 17:53:00,
2013-01-15 12:03:00,22.0,-99.9,-100.00,East,81,3.0,-999.0,-999,0.00,,,0.00,,2013-01-15 18:03:00,
2013-01-15 12:13:00,22.0,-99.9,-100.00,East,81,3.0,-999.0,-999,0.00,,,0.00,,2013-01-15 18:13:00,
2013-01-15 12:24:00,22.0,-99.9,-100.00,East,81,3.0,-999.0,-999,0.00,,,0.00,,2013-01-15 18:24:00,
2013-01-15 12:34:00,29.0,-99.9,-100.00,NW,320,2.0,-999.0,-999,0.00,,,0.00,,2013-01-15 18:34:00,
2013-01-15 12:43:00,29.0,-99.9,-100.00,NW,320,2.0,-999.0,-999,0.00,,,0.00,,2013-01-15 18:43:00,
2013-01-15 12:54:00,29.0,-99.9,-100.00,NW,320,2.0,-999.0,-999,0.00,,,0.00,,2013-01-15 18:54:00,
2013-01-15 13:04:00,32.0,-99.9,-100.00,SE,143,0.0,-999.0,-999,0.00,,,0.00,,2013-01-15 19:04:00,
2013-01-15 13:13:00,32.0,-99.9,-100.00,SE,143,0.0,-999.0,-999,0.00,,,0.00,,2013-01-15 19:13:00,
2013-01-15 13:23:00,32.0,-99.9,-100.00,SE,143,0.0,-999.0,-999,0.00,,,0.00,,2013-01-15 19:23:00,
2013-01-15 13:33:00,32.0,-99.9,-100.00,SSE,151,0.0,-999.0,-999,0.00,,,0.00,,2013-01-15 19:33:00,
2013-01-15 13:43:00,32.0,-99.9,-100.00,SSE,151,0.0,-999.0,-999,0.00,,,0.00,,2013-01-15 19:43:00,
2013-01-15 13:53:00,32.0,-99.9,-100.00,SSE,151,0.0,-999.0,-999,0.00,,,0.00,,2013-01-15 19:53:00,
2013-01-15 14:04:00,30.0,-99.9,-100.00,SE,127,0.0,-999.0,-999,0.00,,,0.00,,2013-01-15 20:04:00,
2013-01-15 14:13:00,30.0,-99.9,-100.00,SE,127,0.0,-999.0,-999,0.00,,,0.00,,2013-01-15 20:13:00,
2013-01-15 14:23:00,30.0,-99.9,-100.00,SE,127,0.0,-999.0,-999,0.00,,,0.00,,2013-01-15 20:23:00,
2013-01-15 14:34:00,31.0,-99.9,-100.00,NE,45,2.0,-999.0,-999,0.00,,,0.00,,2013-01-15 20:34:00,
2013-01-15 14:44:00,31.0,-99.9,-100.00,NE,45,2.0,-999.0,-999,0.00,,,0.00,,2013-01-15 20:44:00,
2013-01-15 14:53:00,31.0,-99.9,-100.00,NE,45,2.0,-999.0,-999,0.00,,,0.00,,2013-01-15 20:53:00,
2013-01-15 15:03:00,32.0,-99.9,-100.00,NNE,25,1.0,-999.0,-999,0.00,,,0.00,,2013-01-15 21:03:00,
2013-01-15 15:13:00,32.0,-99.9,-100.00,NNE,25,1.0,-999.0,-999,0.00,,,0.00,,2013-01-15 21:13:00,
2013-01-15 15:23:00,32.0,-99.9,-100.00,NNE,25,1.0,-999.0,-999,0.00,,,0.00,,2013-01-15 21:23:00,
2013-01-15 15:34:00,32.0,-99.9,-100.00,North,349,3.0,-999.0,-999,0.00,,,0.00,,2013-01-15 21:34:00,
2013-01-15 15:43:00,32.0,-99.9,-100.00,North,349,3.0,-999.0,-999,0.00,,,0.00,,2013-01-15 21:43:00,
2013-01-15 15:53:00,32.0,-99.9,-100.00,North,349,3.0,-999.0,-999,0.00,,,0.00,,2013-01-15 21:53:00,
2013-01-15 16:03:00,32.0,-99.9,-100.00,NNE,27,4.0,-999.0,-999,0.00,,,0.00,,2013-01-15 22:03:00,
2013-01-15 16:13:00,32.0,-99.9,-100.00,NNE,27,4.0,-999.0,-999,0.00,,,0.00,,2013-01-15 22:13:00,
2013-01-15 16:23:00,32.0,-99.9,-100.00,NNE,27,4.0,-999.0,-999,0.00,,,0.00,,2013-01-15 22:23:00,
2013-01-15 16:33:00,30.0,-99.9,-100.00,NNE,32,3.0,-999.0,-999,0.00,,,0.00,,2013-01-15 22:33:00,
2013-01-15 16:43:00,30.0,-99.9,-100.00,NNE,32,3.0,-999.0,-999,0.00,,,0.00,,2013-01-15 22:43:00,
2013-01-15 16:53:00,30.0,-99.9,-100.00,NNE,32,3.0,-999.0,-999,0.00,,,0.00,,2013-01-15 22:53:00,
2013-01-15 17:03:00,27.0,-99.9,-100.00,ENE,77,3.0,-999.0,-999,0.00,,,0.00,,2013-01-15 23:03:00,
2013-01-15 17:13:00,27.0,-99.9,-100.00,ENE,77,3.0,-999.0,-999,0.00,,,0.00,,2013-01-15 23:13:00,
2013-01-15 17:23:00,27.0,-99.9,-100.00,ENE,77,3.0,-999.0,-999,0.00,,,0.00,,2013-01-15 23:23:00,
2013-01-15 17:33:00,26.0,-99.9,-100.00,East,83,2.0,-999.0,-999,0.00,,,0.00,,2013-01-15 23:33:00,
2013-01-15 17:43:00,26.0,-99.9,-100.00,East,83,2.0,-999.0,-999,0.00,,,0.00,,2013-01-15 23:43:00,
2013-01-15 17:53:00,26.0,-99.9,-100.00,East,83,2.0,-999.0,-999,0.00,,,0.00,,2013-01-15 23:53:00,
2013-01-15 18:03:00,25.0,-99.9,-100.00,WSW,247,0.0,-999.0,-999,0.00,,,0.00,,2013-01-16 00:03:00,
2013-01-15 18:13:00,25.0,-99.9,-100.00,WSW,247,0.0,-999.0,-999,0.00,,,0.00,,2013-01-16 00:13:00,
2013-01-15 18:23:00,25.0,-99.9,-100.00,WSW,247,0.0,-999.0,-999,0.00,,,0.00,,2013-01-16 00:23:00,
2013-01-15 18:33:00,24.0,-99.9,-100.00,NNW,331,1.0,-999.0,-999,0.00,,,0.00,,2013-01-16 00:33:00,
2013-01-15 18:43:00,24.0,-99.9,-100.00,NNW,331,1.0,-999.0,-999,0.00,,,0.00,,2013-01-16 00:43:00,
2013-01-15 18:53:00,24.0,-99.9,-100.00,NNW,331,1.0,-999.0,-999,0.00,,,0.00,,2013-01-16 00:53:00,
2013-01-15 19:03:00,22.0,-99.9,-100.00,West,263,1.0,-999.0,-999,0.00,,,0.00,,2013-01-16 01:03:00,
2013-01-15 19:12:00,22.0,-99.9,-100.00,West,263,1.0,-999.0,-999,0.00,,,0.00,,2013-01-16 01:12:00,
2013-01-15 19:23:00,22.0,-99.9,-100.00,West,263,1.0,-999.0,-999,0.00,,,0.00,,2013-01-16 01:23:00,
2013-01-15 19:33:00,22.0,-99.9,-100.00,WSW,249,0.0,-999.0,-999,0.00,,,0.00,,2013-01-16 01:33:00,
2013-01-15 19:43:00,22.0,-99.9,-100.00,WSW,249,0.0,-999.0,-999,0.00,,,0.00,,2013-01-16 01:43:00,
2013-01-15 19:53:00,22.0,-99.9,-100.00,WSW,249,0.0,-999.0,-999,0.00,,,0.00,,2013-01-16 01:53:00,
2013-01-15 20:03:00,21.0,-99.9,-100.00,SW,220,0.0,-999.0,-999,0.00,,,0.00,,2013-01-16 02:03:00,
2013-01-15 20:12:00,21.0,-99.9,-100.00,SW,220,0.0,-999.0,-999,0.00,,,0.00,,2013-01-16 02:12:00,
2013-01-15 20:23:00,21.0,-99.9,-100.00,SW,220,0.0,-999.0,-999,0.00,,,0.00,,2013-01-16 02:23:00,
2013-01-15 20:33:00,20.0,-99.9,-100.00,WSW,253,1.0,-999.0,-999,0.00,,,0.00,,2013-01-16 02:33:00,
2013-01-15 20:43:00,20.0,-99.9,-100.00,WSW,253,1.0,-999.0,-999,0.00,,,0.00,,2013-01-16 02:43:00,
2013-01-15 20:53:00,20.0,-99.9,-100.00,WSW,253,1.0,-999.0,-999,0.00,,,0.00,,2013-01-16 02:53:00,
2013-01-15 21:03:00,20.0,-99.9,-100.00,West,262,1.0,-999.0,-999,0.00,,,0.00,,2013-01-16 03:03:00,
2013-01-15 21:12:00,20.0,-99.9,-100.00,West,262,1.0,-999.0,-999,0.00,,,0.00,,2013-01-16 03:12:00,
2013-01-15 21:23:00,20.0,-99.9,-100.00,West,262,1.0,-999.0,-999,0.00,,,0.00,,2013-01-16 03:23:00,
2013-01-15 21:33:00,19.0,-99.9,-100.00,West,259,2.0,-999.0,-999,0.00,,,0.00,,2013-01-16 03:33:00,
2013-01-15 21:43:00,19.0,-99.9,-100.00,West,259,2.0,-999.0,-999,0.00,,,0.00,,2013-01-16 03:43:00,
2013-01-15 21:53:00,19.0,-99.9,-100.00,West,259,2.0,-999.0,-999,0.00,,,0.00,,2013-01-16 03:53:00,
2013-01-15 22:02:00,18.0,-99.9,-100.00,West,270,2.0,-999.0,-999,0.00,,,0.00,,2013-01-16 04:02:00,
2013-01-15 22:12:00,18.0,-99.9,-100.00,West,270,2.0,-999.0,-999,0.00,,,0.00,,2013-01-16 04:12:00,
2013-01-15 22:22:00,18.0,-99.9,-100.00,West,270,2.0,-999.0,-999,0.00,,,0.00,,2013-01-16 04:22:00,
2013-01-15 22:33:00,17.0,-99.9,-100.00,SW,236,1.0,-999.0,-999,0.00,,,0.00,,2013-01-16 04:33:00,
2013-01-15 22:42:00,17.0,-99.9,-100.00,SW,236,1.0,-999.0,-999,0.00,,,0.00,,2013-01-16 04:42:00,
2013-01-15 22:53:00,17.0,-99.9,-100.00,SW,236,1.0,-999.0,-999,0.00,,,0.00,,2013-01-16 04:53:00,
2013-01-15 23:04:00,16.0,-99.9,-100.00,SW,229,1.0,-999.0,-999,0.00,,,0.00,,2013-01-16 05:04:00,
2013-01-15 23:12:00,16.0,-99.9,-100.00,SW,229,1.0,-999.0,-999,0.00,,,0.00,,2013-01-16 05:12:00,
2013-01-15 23:23:00,16.0,-99.9,-100.00,SW,229,1.0,-999.0,-999,0.00,,,0.00,,2013-01-16 05:23:00,
2013-01-15 23:33:00,15.0,-99.9,-100.00,WSW,254,2.0,-999.0,-999,0.00,,,0.00,,2013-01-16 05:33:00,
2013-01-15 23:43:00,15.0,-99.9,-100.00,WSW,254,2.0,-999.0,-999,0.00,,,0.00,,2013-01-16 05:43:00,
2013-01-15 23:53:00,15.0,-99.9,-100.00,WSW,254,2.0,-999.0,-999,0.00,,,0.00,,2013-01-16 05:53:00,